Home > Weather > Adelaide > Past weeks

Flag for Australia Weather for the Past 2 Weeks in Adelaide, South Australia, Australia

Now
64 °F

Passing clouds.


Feels Like: 64 °F
Forecast: 57 / 67 °F
Wind: 8 mph from Southwest

Location: Adelaide Airport

Current Time: May 1, 2016 at 4:40:59 PM

Latest Report: May 1, 2016 at 3:30 PM


Visibility: N/A

Pressure: 30.04 "Hg

Humidity: 37%

Dew Point: 37 °F

Location of AdelaideLocation

Historic Weather in Adelaide — Graph

°F

Adelaide Temperature Yesterday

Maximum temperature yesterday: 79 °F (at 1:30 PM)
Minimum temperature yesterday: 55 °F (at 2:30 AM)
Average temperature yesterday: 67 °F

High & Low Weather Summary for the Past Weeks

 TemperatureHumidityPressure
High84 °F (Apr 26, 12:00 PM)100% (Apr 21, 2:00 AM)30.48 "Hg (Apr 21, 2:00 AM)
Low45 °F (Apr 18, 4:00 AM)18% (Apr 26, 4:30 PM)29.68 "Hg (Apr 30, 5:30 PM)
Average64 °F58%30.10 "Hg
* Reported Apr 16 3:00 PM — May 1 2:30 PM, Adelaide, Weather by CustomWeather, © 2016

Note: Actual official high and low records may vary slightly from our data, if they occured in-between our weather recording intervals... More about our weather records

Advertising

Adelaide Weather History for the Previous 24 Hours

Scroll right to see more
 ConditionsComfort  
Time TempWeatherWind HumidityBarometerVisibility
2:30 PM
Sun, May 1
64 °FPassing clouds.13 mph40%30.01 "HgN/A
1:30 PM64 °FScattered clouds.13 mph43%30.01 "HgN/A
1:00 PM64 °FScattered clouds.16 mph43%30.01 "HgN/A
12:30 PM63 °FScattered clouds.15 mph42%30.04 "HgN/A
11:30 AM63 °FScattered clouds.18 mph45%30.04 "HgN/A
11:00 AM64 °FScattered clouds.20 mph43%30.04 "HgN/A
10:30 AM63 °FPassing clouds.21 mph45%30.01 "HgN/A
10:00 AM63 °FScattered clouds.22 mph42%30.04 "HgN/A
9:30 AM61 °FScattered clouds.21 mph48%30.01 "HgN/A
9:00 AM61 °FScattered clouds.24 mph55%30.01 "HgN/A
8:30 AM57 °FSprinkles. Scattered clouds.21 mph72%30.01 "HgN/A
8:18 AM57 °FSprinkles. Partly sunny.24 mph72%30.01 "Hg3 mi
7:30 AM57 °FSprinkles. Scattered clouds.24 mph72%29.98 "HgN/A
6:30 AM59 °FPartly sunny.23 mph63%29.95 "HgN/A
6:00 AM57 °FPassing clouds.29 mph77%29.95 "HgN/A
5:30 AM61 °FPassing clouds.28 mph55%29.92 "HgN/A
5:00 AM59 °FPassing clouds.25 mph68%29.89 "HgN/A
4:30 AM59 °FPassing clouds.21 mph63%29.89 "HgN/A
4:00 AM59 °FPartly cloudy.25 mph63%29.89 "HgN/A
3:30 AM61 °FPassing clouds.26 mph59%29.86 "HgN/A
3:00 AM57 °FPassing clouds.28 mph77%29.86 "HgN/A
2:30 AM61 °FPassing clouds.24 mph68%29.83 "HgN/A
2:00 AM61 °FPassing clouds.22 mph63%29.83 "HgN/A
1:30 AM61 °FPassing clouds.23 mph63%29.83 "HgN/A
1:00 AM61 °FPassing clouds.25 mph59%29.83 "HgN/A
12:30 AM61 °FPassing clouds.26 mph63%29.80 "HgN/A
12:00 AM63 °FPassing clouds.29 mph59%29.80 "HgN/A
11:30 PM
Sat, Apr 30
63 °FPartly cloudy.30 mph73%29.80 "HgN/A
11:00 PM63 °FPartly cloudy.29 mph68%29.80 "HgN/A
10:30 PM64 °FClear.28 mph68%29.80 "Hg10 mi
10:19 PM64 °FPassing clouds.29 mph64%29.80 "HgN/A
10:00 PM64 °FClear.26 mph60%29.77 "Hg10 mi
9:32 PM66 °FClear.24 mph52%29.80 "Hg10 mi
9:00 PM66 °FClear.31 mph56%29.77 "Hg10 mi
8:30 PM68 °FClear.24 mph56%29.77 "Hg10 mi
8:00 PM70 °FClear.25 mph53%29.74 "Hg10 mi
7:30 PM72 °FClear.14 mph47%29.71 "Hg10 mi
7:00 PM73 °FClear.18 mph50%29.71 "Hg10 mi
6:30 PM73 °FClear.15 mph44%29.68 "Hg10 mi
5:30 PM75 °FClear.14 mph31%29.68 "Hg10 mi
5:00 PM77 °FSunny.15 mph26%29.71 "Hg10 mi
4:30 PM77 °FSunny.15 mph24%29.71 "Hg10 mi
4:00 PM77 °FSunny.17 mph21%29.71 "Hg10 mi
Weather by CustomWeather, © 2016

See weather overviewHow to use our weather pages